Location: Newark
(48.5667°N, 3.3000°E)
Time: 13:15:08
(UTC+00:00)

OTV 5 (USA 277) - Pass Details

Date: 30 October 2019
Orbit: 310 x 324 km, 54.5° (Epoch: 17 October)

Event Time Altitude Azimuth Distance (km) Brightness Sun altitude
Rises 19:05:15 0° 251° (WSW) 2,061 ? -26.0°
Reaches altitude 10° 19:07:14 10° 256° (WSW) 1,234 ? -26.3°
Enters shadow 19:07:33 12° 258° (WSW) 1,107 ? -26.3°
